Regional Weather Roundup
Issued by NWS

Home | Current Version | Previous Version | Text Only | Print | Product List | Glossary On
Versions: 1 2 3 4 5 6 7 8 9 10 11 12 13 14 15 16 17 18 19 20 21 22 23 24 25 26 27 28 29 30 31 32 33 34 35 36 37 38 39 40 41 42 43 44 45 46 47 48 49 50
000
ASUS43 KTOP 280908
RWRKS

WEATHER ROUNDUP FOR KANSAS
NATIONAL WEATHER SERVICE GOODLAND KS
400 AM CDT TUE JUN 28 2016

NOTE:  "FAIR" INDICATES FEW OR NO CLOUDS BELOW 12,000 FEET WITH NO
SIGNIFICANT WEATHER AND/OR OBSTRUCTIONS TO VISIBILITY.

KSZ001>006-013>018-027>032-041>047-281000-
NORTHWEST KANSAS

CITY           SKY/WX    TMP DP  RH WIND       PRES   REMARKS
GOODLAND       CLOUDY    65  63  93 CALM      30.29S
HAYS           CLEAR     70  61  73 N5        30.18R
HILL CITY      CLOUDY    72  65  78 NE6       30.22R
RUSSELL        CLEAR     69  66  90 N12       30.17R
$$

KSZ061>065-074>080-084>089-281000-
SOUTHWEST KANSAS

CITY           SKY/WX    TMP DP  RH WIND       PRES   REMARKS
DODGE CITY     CLEAR     70  67  90 S5        30.19R
ELKHART          N/A     66  61  84 S7          N/A
GARDEN CITY    PTCLDY    71  67  87 E3        30.21R
GREAT BEND     CLEAR     70  63  78 N3        30.15R
LIBERAL        PTCLDY    66  57  72 SW5       30.21S
PRATT          CLEAR     68  65  89 S3        30.14R
$$

KSZ066>073-081>083-090>101-281000-
SOUTHEAST KANSAS

CITY           SKY/WX    TMP DP  RH WIND       PRES   REMARKS
CHANUTE        CLEAR     71  69  93 E3        30.10S
COFFEYVILLE    PTCLDY    73  72  96 CALM      30.09F
HUTCHINSON     CLEAR     69  67  93 CALM      30.13R
MEDICINE LODGE   N/A     73  67  81 S6        30.11F
PARSONS        PTCLDY    73  72  96 CALM      30.10F
WICHITA INTL   PTCLDY    75  69  81 SE3       30.11F
WICHITA JABRA  CLEAR     72  71  97 CALM      30.12S
WICHITA MCCONL CLEAR     77  69  78 SE5       30.12S
WINFIELD       CLEAR     73  71  93 SE3       30.12S
$$

KSZ007>012-019>026-033>040-048>060-102>105-281000-
NORTHEAST KANSAS

CITY           SKY/WX    TMP DP  RH WIND       PRES   REMARKS
CONCORDIA      TSTM      65  60  84 NE16G28   30.20F
EMPORIA        CLEAR     68  67  96 NE5       30.13R
LAWRENCE       CLEAR     69  67  93 CALM      30.13R
MANHATTAN      CLOUDY    74  68  81 N3        30.13R
MARYSVILLE     CLOUDY    70  66  88 CALM      30.17S
OLATHE IND     CLEAR     72  69  90 N5        30.14S
OLATHE EXE     CLEAR     72  69  90 NW5       30.13S
SALINA         CLOUDY    77  64  64 E5        30.12F
TOPEKA BILLARD CLEAR     73  70  90 CALM      30.13R
TOPEKA FORBES  CLEAR     72  68  87 CALM      30.13S
$$




USA.gov is the U.S. government's official web portal to all federal, state and local government web resources and services.